Location: Unspecified
(0.0000°N, 0.0000°E)
Time: 11:32:29
(UTC+00:00)

Transit 2A Rocket - Pass Details

Date: 20 November 2019
Orbit: 594 x 909 km, 66.7° (Epoch: 07 December)

Event Time Altitude Azimuth Distance (km) Brightness Sun altitude
Rises 19:55:15 0° 208° (SSW) 3,378 9.0 -30.3°
Reaches altitude 10° 19:57:51 10° 213° (SSW) 2,396 8.2 -30.9°
Enters shadow 20:02:28 49° 259° (W) 985 5.8 -31.9°
